Regional Weather Roundup
Issued by NWS

Home | Current Version | Previous Version | Text Only | Print | Product List | Glossary On
Versions: 1 2 3 4 5 6 7 8 9 10 11 12 13 14 15 16 17 18 19 20 21 22 23 24 25 26 27 28 29 30 31 32 33 34 35 36 37 38 39 40 41 42 43 44 45 46 47 48 49 50
525
ASUS44 KLIX 161801
RWRLA
LOUISIANA WEATHER ROUNDUP
NATIONAL WEATHER SERVICE NEW ORLEANS LA
100 PM CDT TUE SEP 16 2014

NOTE: "FAIR" INDICATES FEW OR NO CLOUDS BELOW 12,000 FEET WITH NO
      SIGNIFICANT WEATHER AND/OR OBSTRUCTIONS TO VISIBILITY.
      SKY/WX - SKY CONDITION AND SIGNIFICANT WEATHER.
      TMP - AIR TEMPERATURE.    DP   - DEWPOINT TEMPERATURE.
      RH  - RELATIVE HUMIDITY.  PRES - PRESSURE.
      HX  - HEAT INDEX.         WCI  - WIND CHILL INDEX.

*  THESE STATIONS ARE NOT NWS OR FAA STATIONS AND ARE NOT UNDER
   NWS QUALITY CONTROL.

LAZ040-048-061>063-065-066-069-161900-
SOUTHEAST LOUISIANA

CITY           SKY/WX    TMP DP  RH WIND       PRES   REMARKS
N.O. AUDUBON   NOT AVBL
N.O. INTL ARPT PTSUNNY   85  75  72 S10       30.05S
6HR MIN TEMP:  76; 6HR MAX TEMP:  89;

N.O. LAKEFRONT PTSUNNY   83  71  67 S10       30.05F
6HR MIN TEMP:  81; 6HR MAX TEMP:  88;

N.O. DOWNTOWN* MOCLDY    82  70  65 SE7       30.06S
6HR MIN TEMP:  81; 6HR MAX TEMP:  88;

SLIDELL        PTSUNNY   88  73  61 NE3       30.03F HX  95
6HR MIN TEMP:  73; 6HR MAX TEMP:  89;

BATON ROUGE    PTSUNNY   89  75  63 E5        30.03F HX  99
6HR MIN TEMP:  73; 6HR MAX TEMP:  90;

BOOTHVILLE     PTSUNNY   83  77  82 SW9       30.07S
6HR MIN TEMP:  78; 6HR MAX TEMP:  85;

BELLE CHASSE   PTSUNNY   79  73  82 SE3       30.04F
6HR MIN TEMP:  74; 6HR MAX TEMP:  88;

BOGALUSA*      FAIR      89  72  57 CALM      30.05F HX  96
6HR MIN TEMP:  73; 6HR MAX TEMP:  90;

GALLIANO*      NOT AVBL
NEW ROADS*     MOCLDY    87  75  68 NE3       30.03F HX  96
6HR MIN TEMP:  72; 6HR MAX TEMP:  88;

GONZALES*      FAIR      90  76  64 CALM      30.03F HX 101
6HR MIN TEMP:  73; 6HR MAX TEMP:  90;

HAMMOND*       NOT AVBL
HOUMA*         NOT AVBL
PORT FOURCHON* NOT AVBL

$$

LAZ041-044-053-054-161900-
SOUTHWEST LOUISIANA

CITY           SKY/WX    TMP DP  RH WIND       PRES   REMARKS
LAKE CHARLES   RAIN      82  75  79 SW5       30.05S
6HR MIN TEMP:  75; 6HR MAX TEMP:  89; 6HR PCP:  0.01;

LAFAYETTE      MOSUNNY   91  74  57 CALM      30.03F HX 100
6HR MIN TEMP:  74; 6HR MAX TEMP:  91;

PATTERSON      MOSUNNY   77  75  94 SW8       30.08F
6HR MIN TEMP:  75; 6HR MAX TEMP:  88;

SALT POINT       N/A     84  74  71 SE6       30.05F
6HR MIN TEMP:  80; 6HR MAX TEMP:  84;

NEW IBERIA     MOSUNNY   87  75  67 S9        30.04F HX  96
6HR MIN TEMP:  74; 6HR MAX TEMP:  92;

CHENAULT AIRPK NOT AVBL

$$

LAZ027-028-161900-
CENTRAL LOUISIANA

CITY           SKY/WX    TMP DP  RH WIND       PRES   REMARKS
FORT POLK      MOSUNNY   90  75  61 NE9       30.05F HX 100
6HR MIN TEMP:  74; 6HR MAX TEMP:  90;

ALEXANDRIA INT MOSUNNY   88  74  63 VRB5      30.04F HX  96
6HR MIN TEMP:  73; 6HR MAX TEMP:  89;

ALEXANDRIA     MOSUNNY   89  74  60 E5        30.06F HX  98
6HR MIN TEMP:  74; 6HR MAX TEMP:  90;


$$

LAZ001-002-161900-
NORTHWEST LOUISIANA

CITY           SKY/WX    TMP DP  RH WIND       PRES   REMARKS
SHREVEPORT     PTSUNNY   88  69  53 N5        30.07F
6HR MIN TEMP:  73; 6HR MAX TEMP:  88; 6HR PCP: TRACE;

BARKSDALE AFB  PTSUNNY   87  70  57 NE5       30.07F
6HR MIN TEMP:  71; 6HR MAX TEMP:  87; 6HR PCP: TRACE;

DTN SHREVEPORT PTSUNNY   85  70  60 CALM      30.07F

$$

LAZ014-016-161900-
NORTHEAST LOUISIANA

CITY           SKY/WX    TMP DP  RH WIND       PRES   REMARKS
MONROE         PTSUNNY   85  70  60 N3        30.09F
6HR MIN TEMP:  71; 6HR MAX TEMP:  87;

TALLULAH       PTSUNNY   88  68  51 N7        30.07F
6HR MIN TEMP:  71; 6HR MAX TEMP:  88;


$$




USA.gov is the U.S. government's official web portal to all federal, state and local government web resources and services.